EA7RX-13 Weather Reports


time (UTC)temp
C
wind
direction
speed
KPH
gust
KPH
rain 1hr
cm
rain 24hr
cm
rain mn
cm
humidity
%
barometer
mb
20260504035349 16 0.0 0.0 0.00 0.00 0.00 10 1012.8
20260504034349 16 0.0 0.0 0.00 0.00 0.00 10 1012.7
20260504033349 16 0.0 0.0 0.00 0.00 0.00 10 1012.9
20260504032349 16 0.0 0.0 0.00 0.00 0.00 10 1012.7
20260504031349 16 0.0 0.0 0.00 0.00 0.00 10 1012.9
20260504030349 16 0.0 0.0 0.00 0.00 0.00 10 1012.8
20260504025349 17 0.0 0.0 0.00 0.00 0.00 10 1012.9
20260504024349 17 0.0 0.0 0.00 0.00 0.00 10 1012.8
20260504023349 17 0.0 0.0 0.00 0.00 0.00 10 1012.8
20260504022349 17 0.0 0.0 0.00 0.00 0.00 10 1012.7
20260504021349 17 0.0 0.0 0.00 0.00 0.00 10 1012.8
20260504020349 17 0.0 0.0 0.00 0.00 0.00 10 1012.8
20260504015349 17 0.0 0.0 0.00 0.00 0.00 10 1012.9
20260504014349 17 0.0 0.0 0.00 0.00 0.00 10 1012.9
20260504013349 17 0.0 0.0 0.00 0.00 0.00 10 1013.0
20260504012349 17 0.0 0.0 0.00 0.00 0.00 10 1013.0
20260504011349 17 0.0 0.0 0.00 0.00 0.00 95 1013.1
20260504010349 17 0.0 0.0 0.00 0.00 0.00 10 1013.0
20260504005349 17 0.0 0.0 0.00 0.00 0.00 97 1013.3
20260504004349 17 0.0 0.0 0.00 0.00 0.00 95 1013.3
20260504003349 17 0.0 0.0 0.00 0.00 0.00 89 1013.2
20260504002349 17 0.0 0.0 0.00 0.00 0.00 96 1013.3
20260504001349 17 0.0 0.0 0.00 0.00 0.00 87 1013.2
20260504000349 18 0.0 0.0 0.00 0.00 0.00 10 1013.4
20260503235349 18 0.0 0.0 0.00 0.00 0.00 10 1013.4
20260503234349 18 0.0 0.0 0.00 0.00 0.00 10 1013.4
20260503233349 18 0.0 0.0 0.00 0.00 0.00 96 1013.3
20260503232349 18 0.0 0.0 0.00 0.00 0.00 83 1013.3
20260503231349 18 0.0 0.0 0.00 0.00 0.00 78 1013.3
20260503230349 18 0.0 0.0 0.00 0.00 0.00 73 1013.2
20260503225349 18 0.0 0.0 0.00 0.00 0.00 73 1013.4
20260503224349 18 0.0 0.0 0.00 0.00 0.00 74 1013.3
20260503223349 18 0.0 0.0 0.00 0.00 0.00 70 1013.3
20260503222349 19 0.0 0.0 0.00 0.00 0.00 69 1013.4
20260503221349 19 0.0 0.0 0.00 0.00 0.00 68 1013.3
20260503220349 19 0.0 0.0 0.00 0.00 0.00 70 1013.3
20260503215349 19 0.0 0.0 0.00 0.00 0.00 67 1013.3
20260503214349 19 0.0 0.0 0.00 0.00 0.00 71 1013.0
20260503213349 19 0.0 0.0 0.00 0.00 0.00 66 1013.0
20260503212349 20 0.0 0.0 0.00 0.00 0.00 64 1012.9
20260503211349 20 0.0 0.0 0.00 0.00 0.00 66 1012.8
20260503210349 20 0.0 0.0 0.00 0.00 0.00 64 1012.7
20260503205349 20 0.0 0.0 0.00 0.00 0.00 64 1012.5
20260503204349 20 0.0 0.0 0.00 0.00 0.00 62 1012.4
20260503203349 20 0.0 0.0 0.00 0.00 0.00 67 1012.2
20260503202349 20 0.0 0.0 0.00 0.00 0.00 64 1012.1
20260503201349 20 0.0 0.0 0.00 0.00 0.00 65 1011.9
20260503200349 20 0.0 0.0 0.00 0.00 0.00 67 1011.7
20260503195349 20 0.0 0.0 0.00 0.00 0.00 66 1011.5
20260503194349 20 0.0 0.0 0.00 0.00 0.00 66 1011.4
20260503193349 20 0.0 0.0 0.00 0.00 0.00 63 1011.3
20260503192349 20 0.0 0.0 0.00 0.00 0.00 69 1011.1
20260503191349 21 0.0 0.0 0.00 0.00 0.00 66 1011.1
20260503190349 21 0.0 0.0 0.00 0.00 0.00 65 1010.9
20260503185349 21 0.0 0.0 0.00 0.00 0.00 62 1010.8
20260503184349 21 0.0 0.0 0.00 0.00 0.00 59 1010.6
20260503183349 21 0.0 0.0 0.00 0.00 0.00 59 1010.5
20260503182349 22 0.0 0.0 0.00 0.00 0.00 60 1010.6
20260503181349 22 0.0 0.0 0.00 0.00 0.00 58 1010.5
20260503180349 22 0.0 0.0 0.00 0.00 0.00 59 1010.3
20260503175349 22 0.0 0.0 0.00 0.00 0.00 58 1010.3
20260503174349 22 0.0 0.0 0.00 0.00 0.00 60 1010.3
20260503173349 23 0.0 0.0 0.00 0.00 0.00 60 1010.2
20260503172349 23 0.0 0.0 0.00 0.00 0.00 58 1010.1
20260503171349 23 0.0 0.0 0.00 0.00 0.00 57 1009.9
20260503170349 24 0.0 0.0 0.00 0.00 0.00 56 1009.8
20260503150349 23 0.0 0.0 0.00 0.00 0.00 66 1010.5
20260503131349 26 0.0 0.0 0.00 0.00 0.00 58 1011.0
20260503130349 23 0.0 0.0 0.00 0.00 0.00 71 1011.5
20260503110349 27 0.0 0.0 0.00 0.00 0.00 61 1012.3
20260503090349 20 0.0 0.0 0.00 0.00 0.00 10 1014.0
20260503081349 18 0.0 0.0 0.00 0.00 0.00 10 1014.4
20260503080349 18 0.0 0.0 0.00 0.00 0.00 10 1014.3
20260503072349 19 0.0 0.0 0.00 0.00 0.00 10 1013.9
20260503071349 18 0.0 0.0 0.00 0.00 0.00 10 1014.0
20260503070349 18 0.0 0.0 0.00 0.00 0.00 10 1013.9
20260503054349 17 0.0 0.0 0.00 0.00 0.00 10 1014.0
20260503053349 17 0.0 0.0 0.00 0.00 0.00 10 1013.9
20260503052349 17 0.0 0.0 0.00 0.00 0.00 10 1013.9
20260503051349 17 0.0 0.0 0.00 0.00 0.00 10 1013.7
20260503050349 17 0.0 0.0 0.00 0.00 0.00 10 1013.5
20260503045349 17 0.0 0.0 0.00 0.00 0.00 10 1013.7
20260503044349 17 0.0 0.0 0.00 0.00 0.00 10 1013.7
20260503043349 17 0.0 0.0 0.00 0.00 0.00 10 1013.8
20260503042349 18 0.0 0.0 0.00 0.00 0.00 10 1013.7
20260503041349 17 0.0 0.0 0.00 0.00 0.00 10 1014.0
20260503040349 17 0.0 0.0 0.00 0.00 0.00 10 1013.9